Retour au catalogue

STARLINK-5007

ActifCommunicationsVLEO
NORAD 57365·PAYLOAD·🇺🇸 United States

Lancé Jul 16, 2023 depuis Cape Canaveral Space Force Station

Loading…

Prochains Passages (prochaines 24 heures)

TLE

FraisSource: CelesTrak SupGP

Époque: Sep 15, 2026, 02:15 UTC

1 57365C 23099AP  26258.09423611 -.00022510  00000+0 -81531-3 0  2588
2 57365  42.9991 252.0328 0001364 261.5583 185.8847 15.27589397    16

Suivez STARLINK-5007 en temps réel avec AllMySat

Download on the App Store